Tracking 25963 objects as of 12-Aug-2022
HD Live streaming from Space Station
objects crossing your sky now

STARLINK-3506

Track STARLINK-3506 now!
10-day predictions
STARLINK-3506 is classified as:


NORAD ID: 51751
Int'l Code: 2022-016AP
Perigee: 545.6 km
Apogee: 547.9 km
Inclination: 53.2 °
Period: 95.4 minutes
Semi major axis: 6917 km
RCS: Unknown
Launch date: February 21, 2022
Source: United States (US)
Launch site: AIR FORCE EASTERN TEST RANGE (AFETR)
aabbcc
Your satellite tracking list
Your tracking list is empty




NASA's NSSDC Master Catalog

Two Line Element Set (TLE):
1 51751U 22016AP  22224.58334491 -.00045687  00000-0 -28674-2 0  9990
2 51751  53.2169  47.9748 0001641  66.3159 291.3841 15.08882653  1306
Source of the keplerian elements: AFSPC